CAPE
0 0 0 0 0 0 0 0 0 0 0 0 0 0 0 0 0 0 0 0 0 0 0 0 0 0 0 0 0 0 0 0 0 0 0 0 0 0 0 0 0 0 0 0 0 0 0
0 0 0 0 0 0 0 0 0 0 0 0 0 0 0 0 0 0 0 0 0 0 0 0 0 0 0 0 0 0 0 0 0 0 0 0 0 0 0 0 0 0 0 0 0 0 0
0 0 0 0 0 0 0 0 0 0 0 0 0 0 0 0 0 0 0 0 0 0 0 0 0 0 0 0 0 0 0 0 0 0 0 0 0 0 0 0 0 0 0 0 0 0 0
0 0 0 0 0 0 0 0 0 0 0 0 0 0 0 0 0 0 0 0 0 0 0 0 0 0 0 0 0 0 0 0 0 0 0 0 0 0 0 0 0 0 0 0 0 0 0
0 0 0 0 0 0 0 0 0 0 0 0 0 0 0 0 0 0 0 0 0 0 0 0 0 0 0 0 0 0 0 0 0 0 0 0 0 0 0 0 0 0 0 0 0 0 0
3 0 0 0 0 0 0 0 0 0 0 0 0 0 0 0 0 0 0 0 0 0 0 0 0 0 0 0 0 0 0 0 0 0 0 0 0 0 0 0 0 0 0 0 0 0 0
14 2 0 0 0 0 0 0 0 0 0 0 0 0 0 0 0 0 0 0 0 0 0 0 0 0 0 0 0 0 0 0 0 0 0 0 0 0 0 0 0 0 0 0 0 0 0
11 6 0 0 0 0 0 0 0 0 0 0 0 0 0 0 0 0 0 0 0 0 0 0 0 0 0 0 0 0 0 0 0 0 0 0 0 0 0 0 0 0 0 0 0 0 0
24 10 7 0 0 0 0 0 0 0 0 0 0 0 0 0 0 0 0 0 0 0 0 0 0 0 0 0 0 0 0 0 0 0 0 0 0 0 0 0 0 0 0 0 0 0 0
44 24 10 10 0 0 0 0 0 0 0 0 0 0 0 0 0 0 0 0 0 0 0 0 0 0 0 0 0 0 0 0 0 0 0 0 0 0 0 0 0 0 0 0 0 0 0
53 33 16 1 4 0 0 0 0 0 0 0 0 0 0 0 0 0 0 0 0 0 0 0 0 0 0 0 0 0 0 0 0 0 0 0 0 0 0 0 0 0 0 0 0 0 0
20 33 25 0 0 0 0 0 0 0 0 0 0 0 0 0 0 0 0 0 0 0 0 0 0 0 0 0 0 0 0 0 0 0 0 0 0 0 0 0 0 0 0 0 0 0 0
2 8 20 0 0 0 0 0 0 0 0 0 0 0 0 0 0 0 0 0 0 0 0 0 0 0 0 0 0 0 0 0 0 0 0 0 0 0 0 0 0 0 0 0 0 0 0
14 4 0 0 0 0 0 0 0 0 0 0 0 0 0 0 0 0 0 0 0 0 0 0 0 0 0 0 0 0 0 0 0 0 0 0 0 0 0 0 0 0 0 0 0 0 0
26 7 0 0 0 0 0 0 0 0 0 0 0 0 0 0 0 0 0 0 0 0 0 0 0 0 0 0 0 0 0 0 0 0 0 0 0 0 0 0 0 0 0 0 0 0 0
22 1 0 0 0 0 0 0 0 0 0 0 0 0 0 0 0 0 0 0 0 0 0 0 0 0 0 0 0 0 0 0 0 0 0 0 0 0 0 0 0 0 0 0 0 0 0
13 0 0 0 0 0 0 0 0 0 0 0 0 0 0 0 0 0 0 0 0 0 0 0 0 0 0 0 0 0 0 0 0 0 0 0 0 0 0 0 0 0 0 0 0 0 0
24 1 0 0 0 0 0 0 0 0 0 0 0 0 0 0 0 0 0 0 0 0 0 0 0 0 0 0 0 0 0 0 0 0 0 0 0 0 0 0 0 0 0 0 0 0 0
5 4 0 0 0 0 0 0 0 0 0 0 0 0 0 0 0 0 0 0 0 0 0 0 0 0 0 0 0 0 0 0 0 0 0 0 0 0 0 0 0 0 0 0 0 0 0
16 0 1 1 0 0 0 0 0 0 0 0 0 0 0 0 0 0 0 0 0 0 0 0 0 0 0 0 0 0 0 0 0 0 0 0 0 0 0 0 0 0 0 0 0 0 0
0 0 12 1 7 0 0 0 0 0 0 0 0 0 0 0 0 0 0 0 0 0 0 0 0 0 0 0 0 0 0 0 0 0 0 0 0 0 0 0 0 0 0 0 0 0 0
0 0 3 1 0 3 0 0 0 0 0 0 0 0 0 0 0 0 0 0 0 0 0 0 0 0 0 0 0 0 0 0 0 0 0 0 0 0 0 0 0 0 0 0 0 0 0
9 2 0 0 0 2 0 0 0 0 0 0 0 0 0 0 0 0 0 0 0 0 0 0 0 0 0 0 0 0 0 0 0 0 0 0 0 0 0 0 0 0 0 0 0 0 0
12 12 0 1 0 0 0 0 0 0 0 0 0 0 0 0 0 0 0 0 0 0 0 0 0 0 0 0 0 0 0 0 0 0 0 0 0 0 0 0 0 0 0 0 0 0 0
6 13 3 0 2 0 0 0 0 0 0 0 0 0 0 0 0 0 0 0 0 0 0 0 0 0 0 0 0 0 0 0 0 0 0 0 0 0 0 0 0 0 0 0 0 0 0
2 6 7 0 0 0 0 0 0 0 0 0 0 0 0 0 0 0 0 0 0 0 0 0 0 0 0 0 0 0 0 0 0 0 0 0 0 0 0 0 0 0 0 0 0 0 0
3 2 0 0 0 0 0 0 0 0 0 0 0 0 0 0 0 0 0 0 0 0 0 0 0 0 0 0 0 0 0 0 0 0 0 0 0 0 0 0 0 0 0 0 0 0 0
1 1 1 2 0 0 0 0 0 0 0 0 0 0 0 0 0 0 0 0 0 0 0 0 0 0 0 0 0 0 0 0 0 0 0 0 0 0 0 0 0 0 0 0 0 0 0
2 3 3 3 0 0 0 0 0 0 0 0 0 0 0 0 0 0 0 0 0 0 0 0 0 0 0 0 0 0 0 0 0 0 0 0 0 0 0 0 0 0 0 0 0 0 0
CIN
-0 -0 -0 -0 -0 -0 -0 -0 -0 -0 -0 -0 -0 -0 -0 -0 -0 -0 -0 -0 -0 -0 -0 -0 -0 -0 -0 -0 -0 -0 -0 -0 -0 -0 -0 -0 -0 -0 -0 -0 -0 -0 -0 -0 -0 -0 -0
-0 -0 -0 -0 -0 -0 -0 -0 -0 -0 -0 -0 -0 -0 -0 -0 -0 -0 -0 -0 -0 -0 -0 -0 -0 -0 -0 -0 -0 -0 -0 -0 -0 -0 -0 -0 -0 -0 -0 -0 -0 -0 -0 -0 -0 -0 -0
-0 -0 -0 -0 -0 -0 -0 -0 -0 -0 -0 -0 -0 -0 -0 -0 -0 -0 -0 -0 -0 -0 -0 -0 -0 -0 -0 -0 -0 -0 -0 -0 -0 -0 -0 -0 -0 -0 -0 -0 -0 -0 -0 -0 -0 -0 -0
-0 -0 -0 -0 -0 -0 -0 -0 -0 -0 -0 -0 -0 -0 -0 -0 -0 -0 -0 -0 -0 -0 -0 -0 -0 -0 -0 -0 -0 -0 -0 -0 -0 -0 -0 -0 -0 -0 -0 -0 -0 -0 -0 -0 -0 -0 -0
-0 -0 -0 -0 -0 -0 -0 -0 -0 -0 -0 -0 -0 -0 -0 -0 -0 -0 -0 -0 -0 -0 -0 -0 -0 -0 -0 -0 -0 -0 -0 -0 -0 -0 -0 -0 -0 -0 -0 -0 -0 -0 -0 -0 -0 -0 -0
-0 -0 -0 -0 -0 -0 -0 -0 -0 -0 -0 -0 -0 -0 -0 -0 -0 -0 -0 -0 -0 -0 -0 -0 -0 -0 -0 -0 -0 -0 -0 -0 -0 -0 -0 -0 -0 -0 -0 -0 -0 -0 -0 -0 -0 -0 -0
-0 -0 -0 -0 -0 -0 -0 -0 -0 -0 -0 -0 -0 -0 -0 -0 -0 -0 -0 -0 -0 -0 -0 -0 -0 -0 -0 -0 -0 -0 -0 -0 -0 -0 -0 -0 -0 -0 -0 -0 -0 -0 -0 -0 -0 -0 -0
-0 -0 -1 -0 -0 -0 -0 -0 -0 -0 -0 -0 -0 -0 -0 -0 -0 -0 -0 -0 -0 -0 -0 -0 -0 -0 -0 -0 -0 -0 -0 -0 -0 -0 -0 -0 -0 -0 -0 -0 -0 -0 -0 -0 -0 -0 -0
-0 -1 -5 -0 -0 -0 -0 -0 -0 -0 -0 -0 -0 -0 -0 -0 -0 -0 -0 -0 -0 -0 -0 -0 -0 -0 -0 -0 -0 -0 -0 -0 -0 -0 -0 -0 -0 -0 -0 -0 -0 -0 -0 -0 -0 -0 -0
-1 -5 -3 -2 -0 -0 -0 -0 -0 -0 -0 -0 -0 -0 -0 -0 -0 -0 -0 -0 -0 -0 -0 -0 -0 -0 -0 -0 -0 -0 -0 -0 -0 -0 -0 -0 -0 -0 -0 -0 -0 -0 -0 -0 -0 -0 -0
-1 -4 -6 -5 -4 -0 -0 -0 -0 -0 -0 -0 -0 -0 -0 -0 -0 -0 -0 -0 -0 -0 -0 -0 -0 -0 -0 -0 -0 -0 -0 -0 -0 -0 -0 -0 -0 -0 -0 -0 -0 -0 -0 -0 -0 -0 -0
-9 -4 -6 -3 -0 -0 -0 -0 -0 -0 -0 -0 -0 -0 -0 -0 -0 -0 -0 -0 -0 -0 -0 -0 -0 -0 -0 -0 -0 -0 -0 -0 -0 -0 -0 -0 -0 -0 -0 -0 -0 -0 -0 -0 -0 -0 -0
-6 -4 -11 -0 -0 -0 -0 -15 -0 -0 -0 -0 -0 -0 -0 -0 -0 -0 -0 -0 -0 -0 -0 -0 -0 -0 -0 -0 -0 -0 -0 -0 -0 -0 -0 -0 -0 -0 -0 -0 -0 -0 -0 -0 -0 -0 -0
-8 -14 -0 -0 -0 -0 -0 -0 -0 -0 -0 -0 -0 -0 -0 -0 -0 -0 -0 -0 -0 -0 -0 -0 -0 -0 -0 -0 -0 -0 -0 -0 -0 -0 -0 -0 -0 -0 -0 -0 -0 -0 -0 -0 -0 -0 -0
-22 -29 -0 -0 -0 -0 -0 -0 -0 -0 -0 -0 -0 -0 -0 -0 -0 -0 -0 -0 -0 -0 -0 -0 -0 -0 -0 -0 -0 -0 -0 -0 -0 -0 -0 -0 -0 -0 -0 -0 -0 -0 -0 -0 -0 -0 -0
-12 -32 -0 -0 -0 -0 -0 -0 -0 -0 -0 -0 -0 -0 -0 -0 -0 -0 -0 -0 -0 -0 -0 -0 -0 -0 -0 -0 -0 -0 -0 -0 -0 -0 -0 -0 -0 -0 -0 -0 -0 -0 -0 -0 -0 -0 -0
-4 -21 -0 -0 -0 -0 -0 -0 -0 -0 -0 -0 -0 -0 -0 -0 -0 -0 -0 -0 -0 -0 -0 -0 -0 -0 -0 -0 -0 -0 -0 -0 -0 -0 -0 -0 -0 -0 -0 -0 -0 -0 -0 -0 -0 -0 -0
-2 -14 -0 -0 -0 -0 -0 -0 -0 -0 -0 -0 -0 -0 -0 -0 -0 -0 -0 -0 -0 -0 -0 -0 -0 -0 -0 -0 -0 -0 -0 -0 -0 -0 -0 -0 -0 -0 -0 -0 -0 -0 -0 -0 -0 -0 -0
-5 -8 -0 -0 -0 -0 -0 -0 -0 -0 -0 -0 -0 -0 -0 -0 -0 -0 -0 -0 -0 -0 -0 -0 -0 -0 -0 -0 -0 -0 -0 -0 -0 -0 -0 -0 -0 -0 -0 -0 -0 -0 -0 -0 -0 -0 -0
-18 -10 -17 -0 -0 -0 -0 -0 -0 -0 -0 -0 -0 -0 -0 -0 -0 -0 -0 -0 -0 -0 -0 -0 -0 -0 -0 -0 -0 -0 -0 -0 -0 -0 -0 -0 -0 -0 -0 -0 -0 -0 -0 -0 -0 -0 -0
-6 -0 -6 -4 -0 -0 -0 -0 -0 -0 -0 -0 -0 -0 -0 -0 -0 -0 -0 -0 -0 -0 -0 -0 -0 -0 -0 -0 -0 -0 -0 -0 -0 -0 -0 -0 -0 -0 -0 -0 -0 -0 -0 -0 -0 -0 -0
-3 -0 -24 -1 -0 -0 -0 -0 -0 -0 -0 -0 -0 -0 -0 -0 -0 -0 -0 -0 -0 -0 -0 -0 -0 -0 -0 -0 -0 -0 -0 -0 -0 -0 -0 -0 -0 -0 -0 -0 -0 -0 -0 -0 -0 -0 -0
-30 -29 -0 -0 -0 -0 -0 -0 -0 -0 -0 -0 -0 -0 -0 -0 -0 -0 -0 -0 -0 -0 -0 -0 -0 -0 -0 -0 -0 -0 -0 -0 -0 -0 -0 -0 -0 -0 -0 -0 -0 -0 -0 -0 -0 -0 -0
-14 -21 -0 -2 -0 -0 -0 -0 -0 -0 -0 -0 -0 -0 -0 -0 -0 -0 -0 -0 -0 -0 -0 -0 -0 -0 -0 -0 -0 -0 -0 -0 -0 -0 -0 -0 -0 -0 -0 -0 -0 -0 -0 -0 -0 -0 -0
-14 -15 -23 -25 -1 -0 -0 -0 -0 -0 -0 -0 -0 -0 -0 -0 -0 -0 -0 -0 -0 -0 -0 -0 -0 -0 -0 -0 -0 -0 -0 -0 -0 -0 -0 -0 -0 -0 -0 -0 -0 -0 -0 -0 -0 -0 -0
-20 -32 -7 -0 -17 -0 -0 -0 -0 -0 -0 -0 -0 -0 -0 -0 -0 -0 -0 -0 -0 -0 -0 -0 -0 -0 -0 -0 -0 -0 -0 -0 -0 -0 -0 -0 -0 -0 -0 -0 -0 -0 -0 -0 -0 -0 -0
-22 -19 -16 -0 -0 -0 -0 -0 -0 -0 -0 -0 -0 -0 -0 -0 -0 -0 -0 -0 -0 -0 -0 -0 -0 -0 -0 -0 -0 -0 -0 -0 -0 -0 -0 -0 -0 -0 -0 -0 -0 -0 -0 -0 -0 -0 -0
-0 -0 -0 -0 -0 -0 -0 -0 -0 -0 -0 -0 -0 -0 -0 -0 -0 -0 -0 -0 -0 -0 -0 -0 -0 -0 -0 -0 -0 -0 -0 -0 -0 -0 -0 -0 -0 -0 -0 -0 -0 -0 -0 -0 -0 -0 -0
-0 -0 -0 -0 -0 -0 -0 -0 -0 -0 -0 -0 -0 -0 -0 -0 -0 -0 -0 -0 -0 -0 -0 -0 -0 -0 -0 -0 -0 -0 -0 -0 -0 -0 -0 -0 -0 -0 -0 -0 -0 -0 -0 -0 -0 -0 -0
Wind_Speed
40 41 42 40 39 39 37 36 34 32 30 28 28 25 24 24 23 23 23 22 22 21 21 20 19 19 19 20 14 15 17 16 16 17 18 19 18 16 16 16 19 19 20 20 20 20 20
42 41 43 43 41 41 39 37 36 34 32 30 28 28 25 25 24 24 24 23 23 22 21 20 20 19 21 18 16 17 18 18 18 18 19 19 18 17 16 14 16 14 19 19 19 19 19
43 43 44 45 43 42 41 39 38 36 34 32 29 29 27 26 25 25 25 24 24 23 22 20 19 18 20 13 16 18 19 18 19 19 18 19 18 16 16 17 16 15 17 17 17 17 16
44 44 44 45 45 44 43 41 39 37 35 33 31 29 28 26 26 26 26 25 25 24 22 21 20 19 16 16 18 18 19 18 18 18 17 18 18 16 15 14 12 10 10 13 21 10 9
45 44 45 45 47 45 44 43 40 38 36 35 32 29 29 27 26 26 26 26 26 24 22 21 18 20 16 15 18 19 19 19 18 15 16 16 15 15 13 12 12 10 14 16 19 20 13
42 46 45 46 47 46 45 44 41 39 37 36 34 31 29 28 26 26 26 26 23 22 19 19 20 18 15 16 18 20 18 18 16 14 14 14 14 13 13 14 21 17 17 17 22 24 14
41 44 46 46 47 47 46 45 43 40 37 36 34 32 29 29 26 25 23 21 19 18 17 18 13 14 12 14 17 17 16 15 14 16 16 16 16 17 19 20 19 18 17 18 17 19 19
42 43 48 47 47 47 46 45 43 40 38 36 34 33 30 29 27 25 23 23 18 17 16 15 14 12 14 15 15 16 19 17 15 15 15 14 16 17 18 18 18 17 17 17 18 15 14
42 43 47 48 47 47 46 45 44 41 38 36 34 33 30 29 27 24 24 22 19 17 19 16 15 14 14 14 15 17 18 15 15 14 16 18 15 16 17 17 18 18 20 16 20 14 12
42 42 45 47 47 46 47 45 43 41 38 36 34 32 30 27 25 22 23 20 18 17 21 18 18 15 14 13 15 17 17 16 16 14 14 17 15 16 17 18 20 19 18 17 13 14 20
38 38 39 43 47 46 47 45 44 40 38 36 33 31 30 28 22 24 19 18 17 17 27 14 16 14 13 16 11 16 17 16 15 13 16 16 16 17 18 19 19 18 17 15 13 13 16
34 35 38 38 42 45 45 45 45 41 37 35 33 30 28 28 27 21 18 17 17 24 29 19 15 13 11 12 14 12 14 14 15 15 17 15 15 17 18 15 17 16 16 16 14 14 20
30 33 36 34 36 43 43 46 44 41 37 35 32 30 28 25 27 20 17 18 24 33 16 18 15 12 10 10 12 12 12 15 18 17 17 15 17 16 16 16 14 14 17 22 20 19 21
27 33 35 33 29 34 42 44 44 40 36 33 30 27 27 26 23 21 21 25 31 28 21 12 10 9 12 7 12 12 13 15 16 18 18 18 20 17 17 17 19 17 18 21 26 25 24
23 32 36 37 35 31 36 44 43 38 35 30 27 27 27 25 24 24 27 33 27 23 18 13 10 12 13 13 13 12 14 16 16 17 19 19 19 14 17 18 17 16 16 19 20 17 21
25 30 35 37 38 35 34 41 43 38 34 31 30 30 29 24 24 27 32 34 28 21 16 14 16 15 15 11 11 12 13 14 14 15 15 17 20 15 17 16 14 15 19 17 15 25 27
30 31 35 38 40 40 36 38 41 38 36 34 30 32 27 23 24 30 37 33 27 21 19 18 16 15 12 8 10 11 14 12 13 13 15 16 17 17 15 13 18 15 15 17 20 20 24
32 33 37 40 42 44 37 38 42 38 35 32 32 36 26 23 32 35 35 31 25 21 19 17 16 13 10 8 11 14 13 15 11 12 16 17 17 17 18 17 18 18 18 19 20 21 22
30 33 37 40 41 43 39 41 43 40 38 34 34 29 27 29 37 35 29 28 25 23 20 16 15 14 9 10 15 11 12 13 12 14 15 14 16 19 17 18 15 16 16 18 21 23 25
23 29 36 41 40 41 38 46 47 43 41 33 31 33 31 35 32 36 32 30 26 22 19 16 13 11 10 12 13 12 13 14 13 15 16 17 19 18 22 24 22 21 21 19 21 25 27
31 33 39 42 42 41 40 50 49 43 43 33 32 34 31 40 36 33 32 29 26 24 20 17 16 16 13 16 13 14 13 13 14 15 16 18 21 21 23 24 23 24 25 24 23 24 27
32 36 42 44 46 41 42 46 49 44 39 36 35 31 32 29 31 32 29 29 27 22 20 20 17 13 13 15 17 15 14 16 17 15 17 18 23 23 26 23 24 26 26 25 24 25 26
33 40 43 44 48 44 41 44 46 45 41 37 28 26 30 32 33 31 30 25 24 19 19 17 14 12 13 13 14 13 16 15 16 16 16 19 21 24 26 23 28 30 26 25 20 20 24
31 36 41 42 42 45 39 41 47 47 46 33 30 27 31 35 33 32 26 23 22 21 19 16 14 16 13 7 10 14 15 16 16 18 17 20 20 23 27 28 30 25 22 23 22 22 21
27 34 40 46 42 50 47 41 46 47 44 34 30 27 28 30 28 25 25 23 17 15 14 15 18 17 6 12 19 22 22 22 20 20 19 19 20 24 26 26 32 30 21 21 22 26 17
33 36 39 45 46 41 46 44 48 47 43 32 29 25 24 28 31 26 24 24 25 24 20 20 16 11 17 17 20 25 26 22 22 21 18 19 20 22 25 30 32 24 19 20 21 29 15
29 37 39 37 37 36 41 47 49 46 40 30 27 24 24 27 26 26 29 26 22 20 21 18 18 19 19 18 23 24 26 21 24 24 22 21 21 22 24 29 27 22 17 18 24 24 15
29 38 38 37 33 36 44 46 45 42 35 31 26 22 23 23 22 20 20 22 20 20 23 17 18 22 22 22 23 23 25 23 26 23 21 19 22 24 21 26 34 14 14 20 21 19 17
32 32 28 27 29 41 43 44 42 37 32 28 28 20 14 16 19 13 11 15 17 18 17 20 23 19 20 21 22 21 24 21 21 26 15 23 18 21 19 21 18 12 20 17 20 19 18
Wind_Direction
255 251 247 248 247 246 247 247 246 247 249 254 253 257 258 260 262 263 264 266 269 271 269 265 262 255 240 241 268 280 272 274 276 286 306 313 336 357 5 30 27 37 37 38 42 42 42
253 252 246 246 245 245 245 246 245 245 245 250 254 253 257 258 261 263 264 266 268 269 266 263 259 253 241 255 269 278 283 275 294 293 323 338 348 4 8 12 8 48 42 44 49 51 49
252 250 247 243 244 243 242 243 243 243 243 246 252 251 255 258 259 262 264 265 266 266 263 262 259 254 254 274 273 277 285 288 295 309 334 346 356 354 28 30 54 60 47 44 46 41 53
250 249 247 243 242 241 240 240 241 241 242 242 247 252 252 257 259 262 264 264 264 262 259 258 256 253 272 274 271 284 288 300 310 320 335 343 353 9 10 45 49 47 30 22 21 35 41
247 247 246 242 240 240 238 239 239 240 240 240 243 250 251 255 258 261 263 262 261 258 255 253 257 257 274 281 282 288 298 301 320 340 347 356 9 14 35 44 28 29 2 8 10 17 14
247 243 244 241 239 239 237 237 237 238 239 239 240 246 251 254 258 261 261 258 259 259 256 255 259 265 277 279 290 288 306 308 325 345 358 355 1 16 16 1 346 358 358 7 358 9 25
246 242 241 240 238 237 236 235 235 236 238 239 239 243 250 252 257 261 262 255 254 258 257 262 267 277 290 293 293 313 316 321 331 325 328 341 342 346 350 356 358 358 360 3 12 18 21
242 239 237 237 236 235 235 233 234 235 236 238 240 241 246 251 255 259 256 248 261 262 256 266 273 282 290 291 302 318 309 314 322 325 337 344 346 356 359 1 3 7 6 7 8 17 21
237 236 235 234 234 234 234 231 232 232 234 237 239 240 244 249 254 255 250 253 263 262 256 260 268 277 287 294 302 314 313 328 334 335 336 336 352 358 359 2 3 4 357 2 357 17 14
233 235 234 232 232 232 231 229 230 230 232 235 238 241 242 247 249 250 248 256 258 263 253 254 260 275 283 292 302 314 322 327 333 339 350 346 355 355 355 358 355 345 5 1 8 9 356
230 231 232 232 230 231 229 228 227 229 230 233 236 240 241 240 248 244 252 254 252 257 248 251 257 278 280 286 306 317 330 330 331 338 338 340 347 349 349 351 0 356 3 2 0 349 348
230 230 230 233 232 229 228 226 225 226 229 231 234 238 241 240 242 247 249 247 242 242 250 254 258 257 275 288 302 324 334 348 346 345 349 351 359 355 354 5 4 6 3 2 358 351 336
232 230 229 233 234 227 226 223 223 224 226 228 232 236 236 243 236 239 237 231 231 238 247 252 244 248 265 282 304 317 326 328 320 322 327 344 348 2 2 352 6 4 354 344 342 346 345
235 231 230 231 233 228 226 221 221 221 223 226 231 233 237 240 239 233 228 227 236 237 244 252 225 239 265 281 302 314 318 329 339 329 327 326 327 351 2 357 350 354 353 343 338 342 343
236 235 233 233 231 231 229 221 219 218 219 221 225 230 234 235 235 231 224 225 236 241 238 226 228 244 264 280 298 312 318 322 331 340 326 329 332 2 358 354 355 1 353 352 341 336 341
241 239 234 232 231 230 231 220 216 215 216 217 223 225 229 235 232 227 225 229 242 254 236 217 245 253 262 273 294 305 314 331 334 346 349 341 328 349 350 351 355 348 349 350 355 341 337
243 239 235 232 230 228 230 215 213 212 213 214 224 224 228 232 228 224 225 228 240 245 245 229 257 260 267 267 298 308 314 329 340 347 348 346 337 343 350 349 345 352 348 346 341 338 337
243 240 235 231 229 226 229 221 214 210 210 214 220 222 224 223 220 224 226 231 240 237 244 250 263 265 259 280 297 310 312 324 337 341 337 338 337 331 340 339 339 334 334 336 337 340 334
243 238 235 230 228 225 229 219 213 208 206 212 218 226 224 222 220 219 225 230 234 232 236 245 258 269 278 281 296 310 317 327 330 330 333 337 333 328 336 339 344 339 341 334 332 331 328
240 241 233 226 226 224 225 215 211 208 206 216 218 218 220 221 229 221 223 226 228 238 240 250 258 270 275 286 306 300 310 318 322 324 324 328 322 321 319 327 328 329 329 331 327 324 326
241 237 229 222 221 221 221 215 209 206 206 217 223 221 220 217 222 221 223 225 225 234 246 249 262 269 274 283 293 299 309 315 316 317 319 318 318 317 316 318 320 321 321 321 318 319 318
239 235 225 224 220 221 217 212 207 204 203 217 220 220 220 218 218 219 224 226 225 236 238 247 258 261 274 285 292 290 298 302 305 309 311 316 313 316 316 320 321 319 319 317 316 318 319
237 231 227 226 217 215 212 207 204 203 203 214 225 225 219 217 217 219 224 224 225 234 250 255 254 259 274 292 312 314 309 306 305 307 306 312 314 318 318 325 322 320 324 325 322 327 330
234 232 227 221 221 213 212 210 203 206 208 224 223 220 219 219 219 221 221 227 226 241 243 254 255 268 284 309 327 321 314 310 309 310 312 311 311 315 315 320 317 328 339 338 334 332 333
232 231 228 219 218 212 213 206 203 206 209 222 223 224 223 219 220 222 221 223 227 240 250 255 269 283 255 289 290 289 291 296 299 305 306 309 308 313 315 314 316 319 330 336 333 334 337
230 228 226 219 216 215 214 210 205 206 209 222 221 228 229 218 225 229 226 227 235 243 254 265 273 284 284 282 281 279 283 293 298 305 310 310 308 307 315 313 316 331 339 343 342 327 352
228 221 213 210 212 215 210 204 204 204 209 218 219 228 231 231 235 234 238 233 244 246 257 263 267 270 276 275 274 279 284 294 294 297 304 306 307 302 307 311 319 327 337 343 331 337 351
213 204 206 209 214 211 202 199 199 203 207 215 218 230 230 233 232 247 250 244 255 251 256 254 261 264 265 269 276 282 286 288 294 302 305 308 310 311 312 310 313 339 343 332 339 342 341
205 205 203 208 206 196 195 196 198 202 208 214 218 223 229 237 239 244 256 257 259 257 253 245 262 262 267 273 279 290 290 297 301 301 305 310 310 317 316 323 332 333 336 339 338 335 336